• In Hungary
  • List of Countries
  • For 7 days
  • Water Temperature
  • Satellite Maps
  • Weather Map
  • News
  • Weather Widgets
  • user-avatar
    Login

    Hourly Weather Townsville

    Today, 20 August, Sunday

    Time Temperature Precipitation Wind Pressure Humidity
    00:00 +18°C° 0 mm 3 mps 756 mmHg 49%
    01:00 +17°C° 0 mm 3 mps 756 mmHg 47%
    02:00 +17°C° 0 mm 3 mps 756 mmHg 41%
    03:00 +16°C° 0 mm 3 mps 756 mmHg 34%
    04:00 +14°C° 0 mm 3 mps 756 mmHg 31%
    05:00 +14°C° 0 mm 4 mps 756 mmHg 30%
    06:00 +14°C° 0 mm 4 mps 757 mmHg 29%
    07:00 +13°C° 0 mm 4 mps 757 mmHg 29%
    08:00 +17°C° 0 mm 4 mps 757 mmHg 26%
    09:00 +20°C° 0 mm 4 mps 757 mmHg 22%
    10:00 +25°C° 0 mm 3 mps 757 mmHg 17%
    11:00 +26°C° 0 mm 3 mps 757 mmHg 16%
    12:00 +28°C° 0 mm 4 mps 756 mmHg 14%
    13:00 +29°C° 0 mm 4 mps 756 mmHg 12%
    14:00 +29°C° 0 mm 4 mps 756 mmHg 14%
    15:00 +28°C° 0 mm 4 mps 756 mmHg 16%
    16:00 +27°C° 0 mm 4 mps 755 mmHg 20%
    17:00 +23°C° 0 mm 4 mps 755 mmHg 31%
    18:00 +21°C° 0 mm 3 mps 756 mmHg 41%
    19:00 +18°C° 0 mm 3 mps 756 mmHg 51%
    20:00 +17°C° 0 mm 3 mps 756 mmHg 58%
    21:00 +17°C° 0 mm 3 mps 756 mmHg 64%
    22:00 +15°C° 0 mm 4 mps 757 mmHg 71%
    23:00 +15°C° 0 mm 4 mps 757 mmHg 73%

    Tomorrow, 21 August, Monday

    Time Temperature Precipitation Wind Pressure Humidity
    00:00 +14°C° 0 mm 4 mps 757 mmHg 75%
    01:00 +14°C° 0 mm 4 mps 757 mmHg 76%
    02:00 +13°C° 0 mm 4 mps 757 mmHg 73%
    03:00 +13°C° 0 mm 4 mps 756 mmHg 70%
    04:00 +13°C° 0 mm 4 mps 756 mmHg 67%
    05:00 +13°C° 0 mm 4 mps 756 mmHg 65%
    06:00 +12°C° 0 mm 4 mps 757 mmHg 62%
    07:00 +12°C° 0 mm 3 mps 757 mmHg 59%
    08:00 +17°C° 0 mm 4 mps 757 mmHg 55%
    09:00 +20°C° 0 mm 4 mps 757 mmHg 51%
    10:00 +23°C° 0 mm 4 mps 758 mmHg 47%
    11:00 +25°C° 0 mm 4 mps 757 mmHg 46%
    12:00 +26°C° 0 mm 4 mps 756 mmHg 46%
    13:00 +27°C° 0 mm 4 mps 756 mmHg 45%
    14:00 +27°C° 0 mm 4 mps 756 mmHg 48%
    15:00 +26°C° 0 mm 3 mps 755 mmHg 51%
    16:00 +26°C° 0 mm 3 mps 755 mmHg 53%
    17:00 +24°C° 0 mm 3 mps 755 mmHg 63%
    18:00 +21°C° 0 mm 2 mps 756 mmHg 72%
    19:00 +19°C° 0 mm 2 mps 756 mmHg 81%
    20:00 +19°C° 0 mm 2 mps 757 mmHg 85%
    21:00 +19°C° 0 mm 2 mps 757 mmHg 89%
    22:00 +18°C° 0 mm 2 mps 757 mmHg 93%
    23:00 +18°C° 0 mm 2 mps 757 mmHg 93%

    Day after tomorrow, 22 August, Tuesday

    Time Temperature Precipitation Wind Pressure Humidity
    00:00 +18°C° 0 mm 2 mps 757 mmHg 94%
    01:00 +18°C° 0 mm 2 mps 757 mmHg 95%
    02:00 +18°C° 0 mm 2 mps 757 mmHg 94%
    03:00 +18°C° 0 mm 2 mps 756 mmHg 94%
    04:00 +18°C° 0 mm 2 mps 756 mmHg 94%
    05:00 +18°C° 0 mm 2 mps 756 mmHg 94%
    06:00 +19°C° 0 mm 1 mps 757 mmHg 94%
    07:00 +19°C° 0 mm 1 mps 757 mmHg 93%
    08:00 +21°C° 0 mm 2 mps 757 mmHg 81%
    09:00 +24°C° 0 mm 2 mps 758 mmHg 69%
    10:00 +27°C° 0 mm 2 mps 758 mmHg 57%
    11:00 +28°C° 0 mm 3 mps 757 mmHg 55%
    12:00 +28°C° 0 mm 3 mps 756 mmHg 52%
    13:00 +29°C° 0 mm 3 mps 756 mmHg 50%
    14:00 +29°C° 0 mm 3 mps 756 mmHg 52%
    15:00 +28°C° 0 mm 3 mps 755 mmHg 54%
    16:00 +28°C° 0 mm 3 mps 755 mmHg 56%
    17:00 +26°C° 0 mm 3 mps 755 mmHg 66%
    18:00 +24°C° 0 mm 3 mps 756 mmHg 75%
    19:00 +21°C° 0 mm 3 mps 756 mmHg 84%
    20:00 +21°C° 0 mm 3 mps 757 mmHg 87%
    21:00 +21°C° 0 mm 3 mps 757 mmHg 89%
    22:00 +20°C° 0 mm 3 mps 758 mmHg 92%
    23:00 +20°C° 0 mm 3 mps 757 mmHg 92%

    23 August, Wednesday

    Time Temperature Precipitation Wind Pressure Humidity
    00:00 +20°C° 0 mm 3 mps 757 mmHg 93%
    01:00 +20°C° 0 mm 3 mps 757 mmHg 94%
    02:00 +20°C° 0 mm 3 mps 757 mmHg 93%
    03:00 +20°C° 0 mm 3 mps 757 mmHg 92%
    04:00 +20°C° 0 mm 3 mps 756 mmHg 91%
    05:00 +20°C° 0 mm 3 mps 757 mmHg 90%
    06:00 +20°C° 0 mm 3 mps 757 mmHg 89%
    07:00 +20°C° 0 mm 2 mps 758 mmHg 89%
    08:00 +22°C° 0 mm 3 mps 758 mmHg 79%
    09:00 +25°C° 0 mm 3 mps 758 mmHg 69%
    10:00 +27°C° 0 mm 3 mps 758 mmHg 60%
    11:00 +28°C° 0 mm 3 mps 757 mmHg 54%
    12:00 +29°C° 0 mm 3 mps 757 mmHg 49%
    13:00 +30°C° 0 mm 3 mps 756 mmHg 44%
    14:00 +30°C° 0 mm 3 mps 756 mmHg 45%
    15:00 +29°C° 0 mm 3 mps 755 mmHg 47%
    16:00 +29°C° 0 mm 3 mps 755 mmHg 49%
    17:00 +27°C° 0 mm 3 mps 755 mmHg 58%
    18:00 +24°C° 0 mm 3 mps 756 mmHg 67%
    19:00 +21°C° 0 mm 2 mps 756 mmHg 77%
    20:00 +21°C° 0 mm 2 mps 757 mmHg 80%
    21:00 +20°C° 0 mm 2 mps 757 mmHg 84%
    22:00 +20°C° 0 mm 2 mps 757 mmHg 87%
    23:00 +20°C° 0 mm 2 mps 757 mmHg 89%

    24 August, Thursday

    Time Temperature Precipitation Wind Pressure Humidity
    00:00 +19°C° 0 mm 2 mps 757 mmHg 91%
    01:00 +19°C° 0 mm 2 mps 756 mmHg 93%
    02:00 +19°C° 0 mm 2 mps 756 mmHg 94%
    03:00 +19°C° 0 mm 3 mps 756 mmHg 94%
    04:00 +19°C° 0 mm 3 mps 755 mmHg 95%
    05:00 +19°C° 0 mm 2 mps 756 mmHg 94%
    06:00 +19°C° 0 mm 2 mps 756 mmHg 94%
    07:00 +19°C° 0 mm 2 mps 757 mmHg 94%
    08:00 +22°C° 0 mm 3 mps 757 mmHg 80%
    09:00 +25°C° 0 mm 3 mps 757 mmHg 67%
    10:00 +28°C° 0 mm 3 mps 757 mmHg 53%
    11:00 +29°C° 0 mm 3 mps 756 mmHg 49%
    12:00 +30°C° 0 mm 3 mps 756 mmHg 44%
    13:00 +31°C° 0 mm 3 mps 755 mmHg 40%
    14:00 +30°C° 0 mm 3 mps 754 mmHg 42%
    15:00 +30°C° 0 mm 3 mps 754 mmHg 45%
    16:00 +29°C° 0 mm 3 mps 754 mmHg 47%
    17:00 +27°C° 0 mm 3 mps 754 mmHg 57%
    18:00 +25°C° 0 mm 3 mps 755 mmHg 66%
    19:00 +23°C° 0 mm 2 mps 755 mmHg 76%
    20:00 +21°C° 0 mm 2 mps 755 mmHg 79%
    21:00 +21°C° 0 mm 2 mps 756 mmHg 82%
    22:00 +20°C° 0 mm 2 mps 756 mmHg 85%
    23:00 +20°C° 0 mm 2 mps 756 mmHg 87%

    25 August, Friday

    Time Temperature Precipitation Wind Pressure Humidity
    00:00 +20°C° 0 mm 2 mps 755 mmHg 89%
    01:00 +19°C° 0 mm 2 mps 755 mmHg 91%
    02:00 +19°C° 0 mm 2 mps 755 mmHg 92%
    03:00 +19°C° 0 mm 2 mps 755 mmHg 93%
    04:00 +19°C° 0 mm 2 mps 754 mmHg 94%
    05:00 +19°C° 0 mm 2 mps 755 mmHg 94%
    06:00 +19°C° 0 mm 2 mps 755 mmHg 94%
    07:00 +19°C° 0 mm 2 mps 756 mmHg 94%
    08:00 +23°C° 0 mm 2 mps 756 mmHg 81%
    09:00 +25°C° 0 mm 2 mps 756 mmHg 68%
    10:00 +28°C° 0 mm 2 mps 756 mmHg 55%
    11:00 +29°C° 0 mm 3 mps 756 mmHg 50%
    12:00 +30°C° 0 mm 3 mps 755 mmHg 45%
    13:00 +31°C° 0 mm 3 mps 754 mmHg 40%
    14:00 +30°C° 0 mm 4 mps 754 mmHg 45%
    15:00 +29°C° 0 mm 4 mps 754 mmHg 50%
    16:00 +28°C° 0 mm 4 mps 754 mmHg 55%
    17:00 +26°C° 0 mm 4 mps 754 mmHg 65%
    18:00 +25°C° 0 mm 4 mps 755 mmHg 74%
    19:00 +22°C° 0 mm 4 mps 755 mmHg 83%
    20:00 +21°C° 0 mm 4 mps 755 mmHg 87%
    21:00 +21°C° 0 mm 4 mps 756 mmHg 90%
    22:00 +21°C° 0 mm 4 mps 756 mmHg 94%
    23:00 +20°C° 0 mm 4 mps 756 mmHg 95%
    Show more